Regional Weather Roundup
Issued by NWS

Home | Current Version | Previous Version | Text Only | Print | Product List | Glossary Off
Versions: 1 2 3 4 5 6 7 8 9 10 11 12 13 14 15 16 17 18 19 20 21 22 23 24 25 26 27 28 29 30 31 32 33 34 35 36 37 38 39 40 41 42 43 44 45 46 47 48 49 50

000
ASUS43 KIND 110459
RWRIN

WEATHER ROUNDUP FOR INDIANA
NATIONAL WEATHER SERVICE INDIANAPOLIS IN
1200 AM EST MON DEC 11 2017

NOTE: "FAIR" INDICATES FEW OR NO CLOUDS BELOW 12,000 FEET WITH NO
SIGNIFICANT WEATHER AND/OR OBSTRUCTIONS TO VISIBILITY.

* - STATION DOES NOT REPORT WEATHER SUCH AS PRECIPITATION OR FOG.

+ - STATION NOT QUALITY CONTROLLED BY THE NATIONAL WEATHER SERVICE.
    USE DATA WITH CAUTION...ESPECIALLY DEWPOINT AND RELATIVE
    HUMIDITY OBSERVATIONS.

INZ001>003-010>013-019-020-110600-
NORTHWEST INDIANA

CITY           SKY/WX    TMP DP  RH WIND       PRES   REMARKS
MONTICELLO +   PTCLDY    23  19  82 W3        30.09R

$$

LMZ046-743>745-110600-
SOUTHERN LAKE MICHIGAN

STATION/POSITION TIME  TEMP    WIND        PRES    WAVE
                       AIR SEA DIR/SP/G            HT
                 (UTC) (F)     (DEG/KT/KT) (MB)    (FT)
BURNS HARBOR     0430   31     330/ 10/ 15 1018.6S
MICHIGAN CITY    0430   31     320/ 13/ 15   N/A

$$

INZ004-005-014>016-021>024-110600-
NORTH CENTRAL INDIANA

CITY           SKY/WX    TMP DP  RH WIND       PRES   REMARKS
GOSHEN         CLOUDY    30  23  75 NW8       30.03S WCI  22
PERU/GRISSOM   CLOUDY    30  23  75 NW9       30.06R WCI  22
SOUTH BEND     CLOUDY    29  23  78 W7        30.05S WCI  22

$$

INZ006>009-017-018-025>027-110600-
NORTHEAST INDIANA

CITY           SKY/WX    TMP DP  RH WIND       PRES   REMARKS
FORT WAYNE     CLOUDY    31  24  75 NW8       30.05R WCI  23
KENDALLVILLE + CLOUDY    30  24  79 NW5       30.02R WCI  25

$$

INZ028-029-035-036-043>045-051>053-110600-
WEST CENTRAL INDIANA

CITY           SKY/WX    TMP DP  RH WIND       PRES   REMARKS
LAFAYETTE      CLEAR     25  20  81 NW3       30.11R
TERRE HAUTE    CLEAR     28  21  75 W5        30.13R WCI  23

$$

INZ030>032-037>040-046>048-054>057-064-065-110600-
CENTRAL INDIANA

CITY           SKY/WX    TMP DP  RH WIND       PRES   REMARKS
INDIANAPOLIS   CLEAR     27  21  78 W7        30.09R WCI  19
-EAGLE CREEK   CLEAR     29  21  72 NW9       30.08R WCI  20
KOKOMO +       CLOUDY    30  24  78 NW6       30.08R WCI  24
MT COMFORT *+  CLEAR     27  25  93 NW7       30.07S WCI  19
SHELBYVILLE    CLEAR     30  21  69 W8        30.07R WCI  22

$$

INZ033-034-041-042-049-050-058-059-110600-
EAST CENTRAL INDIANA

CITY           SKY/WX    TMP DP  RH WIND       PRES   REMARKS
MUNCIE         CLOUDY    32  22  66 NW16      30.05R WCI  21
RICHMOND +     PTCLDY    27  23  86 W9        30.03R WCI  17

$$

INZ060-061-067>069-081>083-085>088-110600-
SOUTHWEST INDIANA

CITY           SKY/WX    TMP DP  RH WIND       PRES   REMARKS
EVANSVILLE     CLEAR     37  26  64 NW6       30.15R WCI  32
HUNTINGBURG +  CLEAR     33  25  72 CALM      30.13S

$$

INZ062-063-066-070>080-084-089>092-110600-
SOUTH CENTRAL AND SOUTHEAST INDIANA

CITY           SKY/WX    TMP DP  RH WIND       PRES   REMARKS
BLOOMINGTON    CLEAR     32  21  64 NW3       30.10S
SEYMOUR +      CLEAR     30  21  69 W7        30.11R WCI  23

$$




USA.gov is the U.S. government's official web portal to all federal, state and local government web resources and services.